TimeCDT,TemperatureF,Dew PointF,Humidity,Sea Level PressureIn,VisibilityMPH,Wind Direction,Wind SpeedMPH,Gust SpeedMPH,PrecipitationIn,Events,Conditions,WindDirDegrees,DateUTC
12:15 AM,67.3,58.3,73,30.09,10.0,Calm,Calm,-,N/A,,Clear,0,2013-08-17 05:15:00
12:35 AM,65.7,57.6,75,30.09,10.0,Calm,Calm,-,N/A,,Clear,0,2013-08-17 05:35:00
12:55 AM,65.7,58.6,78,30.09,10.0,NNE,3.5,-,N/A,,Clear,20,2013-08-17 05:55:00
1:15 AM,65.7,59.0,79,30.09,10.0,NNE,4.6,-,N/A,,Clear,20,2013-08-17 06:15:00
1:35 AM,65.7,59.9,82,30.08,10.0,Calm,Calm,-,N/A,,Clear,0,2013-08-17 06:35:00
1:55 AM,63.1,58.5,85,30.08,10.0,Calm,Calm,-,N/A,,Clear,0,2013-08-17 06:55:00
2:15 AM,63.1,59.2,87,30.08,10.0,Calm,Calm,-,N/A,,Clear,0,2013-08-17 07:15:00
2:35 AM,63.1,59.2,87,30.08,10.0,Calm,Calm,-,N/A,,Clear,0,2013-08-17 07:35:00
2:55 AM,61.2,57.6,88,30.07,10.0,North,3.5,-,N/A,,Clear,10,2013-08-17 07:55:00
3:15 AM,63.1,59.2,87,30.07,10.0,North,3.5,-,N/A,,Clear,10,2013-08-17 08:15:00
3:35 AM,63.1,59.0,86,30.07,10.0,Calm,Calm,-,N/A,,Clear,0,2013-08-17 08:35:00
3:55 AM,63.1,59.0,86,30.07,10.0,Calm,Calm,-,N/A,,Clear,0,2013-08-17 08:55:00
4:15 AM,61.0,57.4,88,30.07,10.0,Calm,Calm,-,N/A,,Clear,0,2013-08-17 09:15:00
4:35 AM,60.8,57.2,88,30.07,10.0,North,3.5,-,N/A,,Clear,10,2013-08-17 09:35:00
4:55 AM,62.6,59.0,88,30.06,10.0,North,3.5,-,N/A,,Clear,10,2013-08-17 09:55:00
5:15 AM,60.8,57.2,88,30.06,10.0,North,3.5,-,N/A,,Clear,10,2013-08-17 10:15:00
5:35 AM,60.8,57.2,88,30.07,10.0,Calm,Calm,-,N/A,,Clear,0,2013-08-17 10:35:00
5:55 AM,60.8,57.2,88,30.07,10.0,North,3.5,-,N/A,,Clear,10,2013-08-17 10:55:00
6:15 AM,60.8,57.2,88,30.07,10.0,Calm,Calm,-,N/A,,Clear,0,2013-08-17 11:15:00
6:35 AM,60.8,57.2,88,30.07,10.0,Calm,Calm,-,N/A,,Clear,0,2013-08-17 11:35:00
6:55 AM,60.1,56.7,88,30.08,10.0,North,3.5,-,N/A,,Clear,10,2013-08-17 11:55:00
7:15 AM,60.8,57.4,88,30.08,10.0,North,3.5,-,N/A,,Clear,10,2013-08-17 12:15:00
7:35 AM,63.1,59.5,88,30.08,10.0,North,3.5,-,N/A,,Clear,10,2013-08-17 12:35:00
7:55 AM,65.7,61.0,85,30.08,10.0,North,4.6,-,N/A,,Clear,10,2013-08-17 12:55:00
8:15 AM,65.7,59.5,81,30.08,10.0,North,5.8,-,N/A,,Clear,10,2013-08-17 13:15:00
8:35 AM,66.6,58.8,76,30.09,10.0,North,4.6,-,N/A,,Clear,10,2013-08-17 13:35:00
8:55 AM,69.3,60.3,73,30.09,10.0,North,6.9,-,N/A,,Clear,10,2013-08-17 13:55:00
9:15 AM,70.7,60.6,70,30.09,10.0,North,6.9,-,N/A,,Clear,10,2013-08-17 14:15:00
9:35 AM,70.9,59.9,68,30.09,10.0,North,6.9,-,N/A,,Clear,360,2013-08-17 14:35:00
9:55 AM,72.5,61.3,68,30.09,10.0,NNW,5.8,-,N/A,,Clear,340,2013-08-17 14:55:00
10:15 AM,73.0,61.0,66,30.09,10.0,North,8.1,-,N/A,,Clear,360,2013-08-17 15:15:00
10:35 AM,74.7,61.5,63,30.09,10.0,NE,5.8,-,N/A,,Clear,40,2013-08-17 15:35:00
10:55 AM,75.6,60.6,60,30.09,10.0,North,8.1,-,N/A,,Clear,360,2013-08-17 15:55:00
11:15 AM,77.2,59.4,54,30.09,10.0,North,9.2,-,N/A,,Clear,360,2013-08-17 16:15:00
11:35 AM,78.1,58.5,51,30.09,10.0,North,9.2,-,N/A,,Clear,10,2013-08-17 16:35:00
11:55 AM,78.8,58.1,49,30.08,10.0,North,12.7,17.3,N/A,,Clear,360,2013-08-17 16:55:00
12:15 PM,79.7,55.2,43,30.07,10.0,North,11.5,-,N/A,,Clear,360,2013-08-17 17:15:00
12:35 PM,83.3,55.9,39,30.07,10.0,North,12.7,19.6,N/A,,Clear,10,2013-08-17 17:35:00
12:55 PM,84.9,57.4,39,30.06,10.0,NE,8.1,-,N/A,,Clear,40,2013-08-17 17:55:00
1:15 PM,85.6,55.0,35,30.06,10.0,ENE,6.9,24.2,N/A,,Clear,70,2013-08-17 18:15:00
1:35 PM,85.6,55.9,36,30.05,10.0,NNE,8.1,17.3,N/A,,Clear,30,2013-08-17 18:35:00
1:55 PM,84.4,56.3,38,30.04,10.0,NNE,4.6,19.6,N/A,,Clear,30,2013-08-17 18:55:00
2:15 PM,85.6,55.2,35,30.04,10.0,NE,10.4,18.4,N/A,,Clear,40,2013-08-17 19:15:00
2:35 PM,85.6,52.9,32,30.03,10.0,NNE,9.2,-,N/A,,Clear,30,2013-08-17 19:35:00
2:55 PM,85.6,52.9,32,30.02,10.0,NNE,11.5,19.6,N/A,,Clear,20,2013-08-17 19:55:00
3:15 PM,85.6,54.0,34,30.01,10.0,North,9.2,-,N/A,,Clear,10,2013-08-17 20:15:00
3:35 PM,86.0,54.0,33,30.01,10.0,NNE,4.6,18.4,N/A,,Clear,20,2013-08-17 20:35:00
3:55 PM,85.6,53.6,33,30.00,10.0,North,4.6,-,N/A,,Clear,10,2013-08-17 20:55:00
4:15 PM,86.0,52.5,32,30.00,10.0,ENE,6.9,-,N/A,,Clear,60,2013-08-17 21:15:00
4:35 PM,86.4,52.2,31,30.00,10.0,NE,8.1,-,N/A,,Clear,40,2013-08-17 21:35:00
4:55 PM,85.6,54.3,34,30.00,10.0,North,9.2,16.1,N/A,,Clear,10,2013-08-17 21:55:00
5:15 PM,85.6,55.0,35,30.00,10.0,NE,6.9,-,N/A,,Scattered Clouds,50,2013-08-17 22:15:00
5:35 PM,85.6,55.2,35,30.00,10.0,NE,3.5,-,N/A,,Scattered Clouds,40,2013-08-17 22:35:00
5:55 PM,85.6,56.3,37,30.00,10.0,NE,5.8,-,N/A,,Scattered Clouds,40,2013-08-17 22:55:00
6:15 PM,85.6,57.4,38,30.00,10.0,NNE,4.6,-,N/A,,Scattered Clouds,30,2013-08-17 23:15:00
6:35 PM,85.6,57.4,38,30.00,10.0,NE,4.6,-,N/A,,Clear,50,2013-08-17 23:35:00
6:55 PM,85.6,57.0,38,30.00,10.0,NE,3.5,-,N/A,,Clear,50,2013-08-17 23:55:00
7:15 PM,83.5,55.9,39,30.00,10.0,Calm,Calm,-,N/A,,Clear,0,2013-08-18 00:15:00
7:35 PM,83.3,57.6,41,30.01,10.0,Calm,Calm,-,N/A,,Clear,0,2013-08-18 00:35:00
7:55 PM,79.7,56.3,44,30.01,10.0,NE,3.5,-,N/A,,Clear,40,2013-08-18 00:55:00
8:15 PM,78.4,56.7,47,30.01,10.0,Calm,Calm,-,N/A,,Clear,0,2013-08-18 01:15:00
8:35 PM,76.8,57.2,51,30.01,10.0,Calm,Calm,-,N/A,,Clear,0,2013-08-18 01:35:00
8:55 PM,73.2,58.1,59,30.01,10.0,Calm,Calm,-,N/A,,Clear,0,2013-08-18 01:55:00
9:15 PM,73.0,59.0,61,30.02,10.0,Calm,Calm,-,N/A,,Clear,0,2013-08-18 02:15:00
9:35 PM,72.7,59.9,64,30.03,10.0,Calm,Calm,-,N/A,,Clear,0,2013-08-18 02:35:00
9:55 PM,70.7,59.0,66,30.04,10.0,Calm,Calm,-,N/A,,Clear,0,2013-08-18 02:55:00
10:15 PM,70.7,60.3,69,30.04,10.0,Calm,Calm,-,N/A,,Clear,0,2013-08-18 03:15:00
10:35 PM,70.7,61.0,71,30.04,10.0,Calm,Calm,-,N/A,,Clear,0,2013-08-18 03:35:00
10:55 PM,70.7,61.7,73,30.04,10.0,North,3.5,-,N/A,,Clear,10,2013-08-18 03:55:00
11:15 PM,70.7,62.2,75,30.04,10.0,Calm,Calm,-,N/A,,Clear,0,2013-08-18 04:15:00
11:35 PM,68.2,60.8,77,30.04,10.0,Calm,Calm,-,N/A,,Clear,0,2013-08-18 04:35:00
11:55 PM,68.2,61.5,79,30.05,10.0,Calm,Calm,-,N/A,,Clear,0,2013-08-18 04:55:00